Wind_Speed
18 19 19 19 19 17 14 11 7 5 6 6 8 12 14 14 14 12 12 14 12 11 10 8 11 9 2 4 4 11 8 3 2 4 8 9 12 8 4 2 2 2 3 18 21 19 19
16 17 17 17 18 18 18 15 10 7 6 5 6 9 12 13 10 10 10 9 9 9 8 6 7 13 9 4 11 6 3 3 1 5 9 12 9 9 8 5 3 5 15 12 10 12 12
13 15 16 17 18 18 19 19 15 8 6 5 3 5 8 9 9 10 8 9 6 5 4 5 6 6 8 10 11 3 2 1 1 8 8 9 7 5 7 3 3 7 4 5 12 12 5
12 14 15 16 17 18 20 21 20 12 6 5 4 0 3 4 7 9 11 8 11 8 5 7 9 4 3 16 9 6 4 2 2 6 8 9 14 7 3 3 5 2 3 3 5 7 1
11 12 14 15 17 19 21 22 23 17 9 5 6 6 3 4 7 10 12 12 11 10 2 5 3 1 2 11 13 4 4 5 6 13 10 10 13 4 4 3 4 5 4 5 3 5 2
10 12 14 16 17 19 21 23 24 22 11 7 6 8 9 7 5 6 8 6 9 12 4 3 2 3 5 4 3 7 10 13 12 10 3 5 5 2 3 3 11 6 4 3 5 4 3
10 11 14 15 17 18 20 22 24 25 13 10 7 6 9 12 13 11 9 9 5 3 9 6 2 1 7 9 7 1 6 5 9 6 1 2 3 7 13 3 2 5 5 4 2 1 4
9 11 13 15 17 18 20 22 24 25 17 11 12 6 8 11 13 14 11 8 4 3 4 1 4 6 8 11 4 6 3 4 4 0 8 1 8 3 3 5 8 9 6 3 1 2 5
9 10 12 14 16 18 19 22 23 24 22 11 14 9 8 7 6 9 9 7 7 5 2 2 4 4 4 7 7 8 3 5 2 4 5 5 2 7 7 2 7 2 6 4 5 3 5
11 11 12 14 16 18 19 20 22 24 24 14 13 11 7 4 3 2 2 3 3 2 4 7 4 3 3 2 6 10 8 5 5 3 3 3 6 1 5 5 3 3 1 4 9 5 5
12 12 13 14 15 17 19 20 22 23 23 15 13 10 6 5 2 2 2 1 1 1 5 6 6 6 8 1 3 7 9 7 3 4 5 3 7 7 9 3 2 3 4 6 4 6 4
11 13 14 14 16 17 18 20 22 23 23 18 9 10 7 3 2 2 2 2 1 6 3 6 5 6 6 4 3 1 2 3 1 3 5 1 4 4 3 4 6 6 2 8 6 4 2
11 12 14 16 16 17 18 19 21 23 23 20 4 12 8 3 2 1 0 1 5 5 2 6 3 4 3 3 4 3 3 6 3 4 5 2 3 5 5 4 2 1 4 3 3 3 5
13 13 12 14 17 17 18 19 20 22 22 20 5 5 9 5 2 1 1 5 6 3 4 3 3 5 3 4 3 6 3 4 4 3 3 3 4 2 5 0 2 3 4 5 5 4 3
16 15 14 14 16 18 18 19 19 20 22 17 6 2 9 5 2 1 1 5 4 3 3 6 5 4 6 5 3 4 4 4 2 4 2 2 2 2 2 1 1 1 4 3 7 4 4
17 16 16 16 15 17 19 18 18 18 20 16 7 3 7 2 2 1 4 3 2 2 3 2 3 2 5 6 5 3 4 3 6 4 5 1 2 1 3 1 2 3 4 4 4 3 2
20 19 17 17 16 15 17 19 17 16 18 14 6 2 6 2 2 1 3 4 2 1 0 1 3 4 3 2 2 4 4 2 3 6 3 4 2 3 0 3 1 3 2 6 3 4 4
24 22 20 18 17 16 15 16 17 17 16 13 4 1 3 1 1 3 2 3 2 2 1 1 1 1 2 3 3 1 0 2 6 3 2 1 1 1 1 3 1 1 2 4 4 4 1
29 26 25 22 19 17 15 15 15 15 14 15 8 3 2 1 1 0 2 2 2 3 2 1 1 1 1 2 2 1 2 1 5 3 2 4 3 2 6 4 4 3 2 1 1 2 3
32 31 27 26 23 19 16 14 12 13 12 11 4 2 2 2 1 5 5 3 2 2 3 3 2 0 2 1 1 2 3 3 5 4 3 1 2 3 5 2 1 2 3 3 3 3 2
37 33 34 28 25 23 18 16 13 11 11 8 3 3 2 2 1 2 2 7 4 3 3 4 2 3 2 1 1 1 3 3 3 6 2 3 2 2 3 5 2 2 3 2 3 1 3
42 40 36 34 29 26 24 19 14 12 10 8 4 3 3 2 2 4 1 6 8 4 6 3 3 5 4 4 4 4 1 1 1 4 4 4 2 2 3 2 3 3 5 6 3 2 4
46 43 40 40 32 30 26 22 17 16 12 6 7 6 3 3 3 3 4 5 6 8 4 3 4 2 2 4 5 2 3 2 2 1 1 1 3 2 4 1 4 2 3 3 3 3 4
52 48 45 41 38 32 29 26 22 19 17 15 11 7 5 4 4 5 5 6 6 5 4 5 7 5 3 2 3 2 3 2 2 4 1 3 3 2 3 3 2 4 1 3 7 1 2
58 53 49 46 44 35 32 29 25 22 20 17 16 12 6 3 6 3 7 5 6 5 2 4 5 4 4 3 2 2 2 1 2 3 4 2 3 2 2 1 6 3 2 5 3 3 2
47 62 55 50 46 40 36 33 28 25 23 20 18 17 9 3 7 4 7 9 4 4 0 3 4 4 3 3 2 4 4 4 3 1 3 3 4 3 2 2 5 1 2 2 2 3 6
52 52 63 55 48 44 39 36 32 28 25 23 19 19 15 6 6 10 5 6 8 4 3 4 5 5 5 2 2 4 4 1 3 4 4 2 2 4 2 3 7 4 4 2 3 4 9
56 52 66 61 51 48 43 40 34 31 27 26 24 21 21 9 7 12 12 8 8 8 4 9 5 2 2 3 4 4 3 4 1 3 5 6 5 4 2 1 7 6 3 5 4 10 11
67 63 61 70 55 52 45 43 38 33 29 26 23 22 21 14 5 13 15 15 13 10 9 16 4 5 8 3 1 2 2 0 3 3 1 2 5 4 7 5 1 9 2 2 8 7 11
Wind_Direction
40 39 38 36 33 29 23 14 7 355 342 349 3 9 10 16 21 27 34 34 36 45 55 51 29 5 326 38 0 331 310 312 259 207 196 184 166 150 156 135 20 178 210 239 257 277 295
36 34 33 31 26 24 24 12 360 348 338 335 4 13 15 23 24 19 17 26 41 53 52 50 12 33 49 54 340 337 279 232 225 188 182 183 191 183 158 128 98 330 239 237 275 287 270
30 31 29 27 23 18 18 16 6 342 324 312 345 23 26 34 31 40 31 31 28 26 3 358 358 347 30 3 351 6 56 5 183 194 175 185 181 163 133 81 258 252 231 290 274 280 260
25 25 24 23 18 13 13 14 12 1 321 297 270 328 24 34 5 353 351 356 28 351 313 322 337 339 354 347 3 9 318 319 235 174 187 188 175 157 130 155 135 147 121 123 267 220 200
18 19 20 18 14 10 9 9 11 9 356 304 273 252 267 309 338 346 358 357 332 358 343 25 337 214 29 26 42 17 346 195 147 140 136 138 171 156 106 108 96 175 177 184 241 183 201
10 13 14 11 9 7 7 6 8 7 2 350 298 271 264 271 288 328 13 31 42 46 8 294 72 277 355 355 37 97 93 92 116 99 113 141 197 121 135 158 178 159 193 171 194 198 65
2 5 5 5 3 2 3 5 6 7 4 6 335 296 278 266 269 283 305 347 351 321 36 67 89 29 343 333 298 278 38 79 180 206 51 317 149 150 155 196 133 167 151 134 262 144 93
355 358 360 358 358 358 359 1 4 6 5 4 357 323 299 286 267 265 286 320 333 304 314 315 327 334 348 338 319 33 80 163 225 351 138 74 70 309 196 226 252 231 152 144 349 142 91
345 351 355 351 353 354 356 358 0 4 2 352 0 347 337 329 294 253 261 285 305 316 293 323 272 281 346 357 340 352 356 137 150 64 65 108 192 232 215 138 162 56 146 179 148 115 42
337 341 349 348 349 351 351 356 357 359 2 352 355 356 360 350 358 3 280 291 279 281 63 307 346 6 347 333 327 352 10 15 21 76 43 91 307 88 89 77 342 78 87 146 140 98 150
329 332 339 342 345 347 348 352 353 357 359 356 354 2 352 8 352 333 309 352 153 134 46 290 311 339 347 178 320 357 6 29 10 23 54 299 5 20 52 337 293 95 353 139 94 88 97
321 324 328 333 338 342 344 347 350 353 354 354 1 5 357 353 352 347 338 103 127 44 283 329 316 355 12 11 358 36 346 27 25 90 45 315 11 42 312 298 56 6 58 46 47 84 49
308 316 322 327 332 336 339 343 348 349 353 350 315 9 9 356 332 346 340 338 29 98 336 306 326 349 343 302 10 11 52 20 47 46 17 40 41 350 351 75 10 128 58 49 22 20 201
302 308 315 321 326 330 335 339 345 346 351 351 327 344 3 13 357 79 102 51 65 243 265 323 333 318 359 6 7 15 32 25 11 69 58 90 336 94 325 203 211 150 159 149 168 160 229
298 302 307 315 321 325 330 334 341 346 347 352 339 316 7 10 67 42 135 54 208 207 322 335 318 39 340 356 42 66 33 341 311 10 104 117 337 321 167 243 193 234 58 196 102 35 63
290 294 300 307 314 320 324 330 337 346 345 349 338 304 356 29 30 341 78 177 215 271 333 347 340 54 17 336 27 44 16 349 330 13 359 273 51 25 304 355 341 108 172 58 21 130 213
286 288 291 296 304 312 319 324 331 342 344 346 330 301 359 140 334 13 124 211 185 222 36 360 324 325 17 23 8 14 335 348 338 316 15 3 111 280 61 21 212 10 51 57 101 147 176
279 281 283 287 292 299 308 316 324 335 344 345 323 351 350 281 357 64 140 173 171 163 169 256 231 278 314 355 20 84 192 235 343 308 349 169 152 93 41 322 304 2 95 135 137 213 164
275 277 280 279 281 285 292 303 315 327 339 343 323 272 243 279 153 23 272 271 175 161 176 186 277 176 289 312 4 25 350 290 357 30 45 340 5 30 349 3 29 17 356 14 8 45 192
278 269 267 273 275 275 279 285 299 312 326 331 312 348 210 223 123 144 161 210 237 213 186 190 220 247 319 288 284 336 345 356 354 6 338 354 63 130 187 221 174 220 208 159 125 90 157
282 274 266 262 265 269 266 270 276 290 303 316 264 246 196 269 271 190 175 164 158 234 242 202 206 200 171 282 351 13 351 330 339 354 35 98 114 116 259 255 251 260 267 205 193 215 155
273 277 270 260 258 256 257 255 256 263 275 274 260 225 207 240 211 167 193 231 178 183 157 233 220 194 162 185 190 201 191 319 280 334 24 4 317 20 288 331 359 293 280 251 238 276 299
264 268 272 260 251 249 247 248 245 246 249 242 242 241 222 217 160 125 223 198 222 155 193 183 184 147 229 209 184 205 240 233 225 239 262 132 133 100 261 258 346 335 227 198 193 179 167
263 261 265 267 249 241 240 239 236 237 235 235 237 227 211 249 179 197 194 188 174 218 181 178 178 163 175 192 272 252 251 205 167 40 178 161 146 151 252 313 354 226 15 156 125 63 164
257 259 256 261 251 236 235 233 230 229 232 231 227 211 215 251 207 203 189 163 150 160 188 197 203 183 171 150 75 36 320 207 87 36 354 31 127 78 105 309 296 131 188 150 183 224 224
245 252 255 251 258 233 231 231 225 224 225 226 225 218 204 195 236 188 172 180 167 173 30 208 186 192 187 93 100 184 220 231 221 203 28 68 72 110 124 142 223 207 196 116 84 277 179
242 242 249 245 247 231 227 229 222 220 221 221 221 216 211 214 229 192 181 183 177 159 133 150 171 171 186 101 149 182 243 198 217 190 172 71 38 159 164 222 288 236 160 159 97 233 164
248 237 239 243 237 227 222 223 220 216 217 218 220 214 210 213 230 218 214 180 173 189 158 152 109 204 91 169 171 219 197 221 196 164 177 168 147 198 121 190 276 163 113 174 176 150 172
248 234 234 238 228 221 218 219 216 216 214 213 218 213 211 216 225 219 227 220 211 209 193 173 163 159 179 110 215 110 198 145 159 237 126 211 191 185 186 215 213 187 121 160 187 191 198
Height
1557 1554 1552 1549 1547 1545 1542 1541 1539 1537 1536 1534 1533 1531 1529 1526 1524 1521 1518 1516 1513 1510 1508 1507 1506 1504 1502 1501 1500 1498 1497 1495 1494 1494 1495 1496 1498 1501 1504 1504 1505 1509 1507 1508 1505 1509 1509
1558 1555 1553 1550 1548 1546 1543 1540 1537 1536 1535 1533 1532 1531 1529 1526 1524 1521 1519 1516 1514 1511 1509 1507 1506 1505 1502 1502 1499 1497 1495 1495 1495 1495 1496 1497 1499 1500 1502 1503 1507 1508 1508 1508 1506 1507 1508
1559 1556 1554 1551 1549 1546 1543 1540 1537 1534 1533 1532 1531 1530 1528 1526 1524 1522 1519 1517 1515 1512 1510 1509 1506 1504 1503 1503 1498 1496 1495 1495 1495 1495 1496 1498 1500 1501 1502 1503 1506 1508 1510 1509 1506 1505 1504
1559 1557 1555 1552 1550 1546 1543 1540 1536 1532 1531 1530 1530 1530 1528 1527 1524 1522 1519 1517 1516 1513 1510 1508 1506 1504 1503 1501 1498 1496 1495 1494 1495 1495 1497 1498 1500 1503 1504 1504 1506 1510 1510 1517 1505 1502 1502
1559 1557 1555 1553 1550 1547 1543 1540 1536 1532 1529 1528 1528 1528 1527 1526 1524 1522 1519 1517 1515 1513 1511 1508 1506 1503 1502 1500 1496 1496 1492 1494 1495 1497 1498 1499 1502 1503 1505 1503 1511 1509 1518 1514 1506 1500 1501
1559 1558 1555 1553 1551 1548 1544 1540 1536 1532 1528 1526 1526 1526 1525 1525 1523 1522 1519 1518 1516 1513 1510 1509 1507 1508 1503 1501 1497 1496 1495 1496 1497 1497 1498 1499 1501 1501 1502 1502 1504 1512 1513 1509 1509 1501 1499
1560 1558 1556 1554 1552 1548 1544 1540 1536 1531 1528 1526 1524 1523 1523 1522 1521 1520 1519 1518 1518 1516 1512 1511 1510 1506 1503 1501 1498 1497 1498 1499 1498 1499 1497 1497 1499 1501 1499 1498 1497 1503 1505 1506 1503 1499 1502
1560 1557 1556 1554 1552 1549 1545 1541 1536 1532 1528 1525 1523 1521 1520 1519 1518 1518 1518 1518 1518 1518 1514 1512 1509 1507 1502 1500 1499 1498 1498 1498 1495 1496 1500 1500 1503 1496 1501 1503 1502 1501 1503 1504 1501 1499 1501
1559 1557 1554 1553 1551 1548 1545 1541 1537 1533 1529 1525 1523 1520 1518 1517 1516 1516 1516 1517 1516 1515 1515 1511 1508 1506 1505 1501 1499 1497 1496 1496 1495 1495 1497 1501 1500 1498 1499 1499 1499 1502 1503 1507 1503 1502 1507
1558 1556 1554 1552 1550 1548 1545 1541 1537 1533 1529 1525 1522 1519 1517 1516 1518 1515 1516 1515 1515 1515 1527 1516 1508 1507 1506 1503 1500 1496 1496 1496 1493 1497 1497 1501 1499 1495 1495 1498 1498 1500 1500 1501 1506 1508 1529
1557 1556 1553 1551 1549 1547 1544 1541 1537 1533 1528 1524 1522 1519 1517 1515 1515 1516 1517 1515 1515 1516 1556 1514 1508 1507 1505 1505 1505 1500 1498 1496 1497 1496 1501 1503 1502 1499 1498 1501 1499 1503 1500 1501 1504 1515 1520
1555 1554 1553 1551 1548 1546 1543 1540 1537 1533 1529 1525 1522 1519 1517 1516 1515 1516 1516 1516 1517 1534 1549 1520 1510 1509 1506 1504 1504 1502 1501 1500 1500 1500 1502 1502 1500 1501 1502 1496 1494 1501 1503 1506 1513 1520 1544
1553 1552 1551 1549 1547 1544 1542 1539 1536 1532 1528 1524 1521 1520 1517 1516 1516 1515 1516 1518 1532 1544 1523 1519 1515 1510 1511 1509 1506 1504 1507 1508 1510 1514 1509 1506 1508 1507 1504 1505 1505 1508 1511 1538 1543 1552 1544
1551 1550 1548 1547 1546 1544 1540 1538 1535 1531 1528 1523 1521 1520 1517 1516 1515 1516 1516 1520 1540 1528 1523 1517 1515 1512 1510 1509 1507 1509 1509 1513 1509 1508 1515 1522 1525 1512 1509 1509 1509 1509 1510 1535 1534 1543 1546
1549 1548 1546 1544 1543 1542 1540 1536 1533 1530 1527 1523 1521 1519 1518 1516 1515 1516 1517 1541 1535 1529 1524 1523 1516 1517 1516 1511 1512 1512 1516 1516 1512 1510 1513 1513 1512 1508 1508 1508 1510 1502 1520 1514 1531 1542 1555
1546 1545 1544 1543 1541 1540 1538 1535 1532 1529 1526 1523 1521 1519 1518 1517 1516 1516 1519 1529 1527 1524 1523 1522 1522 1518 1521 1519 1516 1513 1519 1517 1516 1513 1512 1509 1514 1508 1507 1507 1506 1505 1509 1518 1534 1533 1530
1542 1541 1541 1540 1539 1538 1536 1534 1531 1528 1525 1522 1520 1518 1518 1516 1516 1517 1529 1529 1522 1522 1523 1524 1523 1522 1521 1522 1520 1521 1522 1519 1516 1513 1512 1513 1515 1512 1510 1512 1511 1511 1511 1514 1522 1530 1530
1538 1537 1536 1536 1536 1535 1534 1532 1530 1527 1524 1522 1519 1519 1518 1517 1519 1521 1525 1520 1521 1521 1521 1522 1522 1521 1521 1520 1520 1519 1519 1519 1517 1516 1514 1515 1516 1526 1512 1512 1511 1509 1508 1514 1530 1519 1528
1533 1533 1532 1531 1532 1531 1531 1530 1529 1526 1524 1521 1518 1518 1517 1517 1521 1524 1521 1521 1519 1521 1520 1520 1521 1520 1518 1518 1520 1517 1517 1517 1516 1515 1516 1515 1518 1533 1516 1512 1510 1513 1512 1515 1518 1520 1515
1525 1526 1525 1526 1527 1527 1528 1527 1527 1525 1523 1522 1519 1519 1517 1516 1515 1517 1519 1520 1520 1519 1518 1519 1519 1519 1519 1518 1517 1518 1517 1517 1517 1516 1515 1515 1521 1520 1525 1514 1516 1515 1514 1514 1517 1532 1521
1519 1518 1520 1519 1520 1522 1522 1524 1524 1522 1522 1522 1519 1515 1515 1518 1515 1516 1516 1515 1518 1519 1519 1518 1518 1517 1519 1520 1519 1519 1518 1517 1516 1515 1514 1516 1520 1528 1520 1519 1516 1514 1513 1514 1518 1512 1515
1510 1511 1511 1512 1514 1515 1517 1518 1519 1519 1519 1519 1517 1515 1514 1513 1513 1514 1516 1517 1512 1513 1516 1517 1517 1515 1515 1517 1518 1520 1520 1521 1519 1517 1516 1518 1521 1520 1516 1514 1515 1515 1515 1515 1515 1512 1514
1499 1501 1504 1504 1505 1508 1510 1512 1514 1514 1514 1514 1513 1513 1512 1511 1511 1514 1512 1510 1511 1509 1512 1512 1514 1515 1516 1515 1515 1517 1518 1518 1518 1518 1519 1519 1523 1530 1518 1516 1520 1519 1507 1512 1512 1511 1510
1486 1490 1493 1495 1497 1499 1501 1504 1507 1508 1508 1509 1509 1510 1511 1508 1508 1507 1506 1507 1508 1510 1511 1510 1512 1514 1515 1515 1516 1516 1517 1517 1517 1518 1517 1519 1522 1527 1529 1521 1519 1507 1505 1505 1510 1513 1510
1472 1476 1480 1484 1486 1489 1493 1495 1498 1500 1503 1503 1503 1504 1506 1505 1501 1503 1503 1504 1507 1507 1510 1511 1511 1511 1512 1512 1516 1517 1518 1517 1519 1520 1518 1517 1520 1525 1525 1526 1511 1510 1507 1509 1508 1514 1513
1457 1461 1467 1471 1474 1478 1483 1486 1489 1492 1495 1497 1498 1499 1499 1501 1496 1496 1500 1501 1505 1507 1509 1508 1509 1510 1511 1512 1515 1515 1514 1509 1512 1518 1517 1518 1518 1522 1528 1521 1514 1502 1504 1504 1506 1514 1512
1442 1446 1451 1457 1462 1465 1472 1476 1480 1484 1487 1490 1490 1493 1495 1494 1492 1494 1493 1495 1497 1500 1503 1505 1507 1509 1511 1516 1519 1521 1516 1509 1510 1513 1521 1523 1524 1526 1527 1532 1516 1503 1503 1504 1511 1513 1509
1423 1427 1434 1440 1446 1453 1458 1465 1470 1473 1478 1482 1483 1485 1488 1488 1487 1489 1489 1489 1492 1495 1497 1500 1506 1508 1511 1515 1517 1515 1516 1509 1509 1510 1515 1517 1525 1526 1528 1528 1524 1502 1504 1506 1506 1505 1508
1400 1407 1415 1422 1430 1438 1446 1454 1459 1465 1469 1473 1477 1479 1481 1485 1484 1484 1486 1486 1487 1490 1493 1493 1495 1497 1501 1508 1512 1512 1511 1513 1512 1510 1506 1509 1505 1507 1511 1507 1499 1501 1502 1502 1503 1504 1506